Regional Weather Roundup
Issued by NWS Sterling, VA

Home | Current Version | Previous Version | Text Only | Print | Product List | Glossary On
Versions: 1 2 3 4 5 6 7 8 9 10 11 12 13 14 15 16 17 18 19 20 21 22 23 24 25 26 27 28
000
ASUS41 KLWX 260710
RWRLWX

REGIONAL WEATHER ROUNDUP
NATIONAL WEATHER SERVICE BALTIMORE MD/WASHINGTON DC
300 AM EDT TUE JUL 26 2016

Note: "FAIR" indicates few or no clouds below 12,000 feet
with no significant weather and/or obstructions to visibility.
 TC=TEMPERATURE CELSIUS

 * =Non NWS site. Station does not report precipitation (e.g. rain,
    snow, etc.), thunder, or fog.

DCZ001-MDZ009-015-VAZ040>042-051-053>054-260800-
WASHINGTON METRO

CITY           SKY/WX    TMP DP  RH WIND       PRES   REMARKS
WASHINGTON NAT MOCLDY    80  73  79 CALM      29.92S
DULLES         MOCLDY    79  73  82 N5        29.93R
ANDREWS AFB    PTCLDY    75  72  91 N3        29.92S
FT BELVOIR     FAIR      76  75  95 CALM      29.92R
COLLEGE PARK*  FAIR      73  72  94 CALM      29.92R
LEESBURG*      FAIR      79  75  89 NE3       29.94S
MANASSAS*      FAIR      79  75  89 N3        29.92S
GAITHERSBURG*  MOCLDY    73  68  83 CALM      29.97S

$$

MDZ006>007-011-014-260800-
BALTIMORE METRO

CITY           SKY/WX    TMP DP  RH WIND       PRES   REMARKS
BWI AIRPORT    MOCLDY    76  71  85 CALM      29.92R
MD SCIENCE CTR   N/A     81  71  71 MISG      29.92S
MARTIN STATE   PTCLDY    75  73  94 CALM      29.93S
ANNAPOLIS      PTCLDY    78  76  93 N5        29.90S
FORT MEADE*    PTCLDY    72  70  94 CALM      29.95R

$$

MDZ012-015-019>023-260800-
MARYLAND EASTERN SHORE

CITY           SKY/WX    TMP DP  RH WIND       PRES   REMARKS
OCEAN CITY     LGT RAIN  75  73  93 SW5       29.89F
SALISBURY      CLOUDY    76  74  93 SW6       29.90F
BAY BRIDGE AP* PTCLDY    75  73  94 CALM      29.91F
CAMBRIDGE*     PTCLDY    73  72  94 CALM      29.89F
EASTON*        PTCLDY    77  77 100 CALM      29.94F

$$

MDZ017>025-260800-
SOUTHERN MARYLAND

CITY           SKY/WX    TMP DP  RH WIND       PRES   REMARKS
PATUXENT RIVER CLOUDY    79  74  84 SW8       29.89F
ST INIGOES     PTCLDY    81  78  91 S3        29.89F
LEONARDTOWN*   PTCLDY    77  73  88 CALM      29.92R

$$

MDZ003>005-260800-
NORTH CENTRAL MARYLAND

CITY           SKY/WX    TMP DP  RH WIND       PRES   REMARKS
FREDERICK*     MOCLDY    72  72 100 CALM      29.96S
HAGERSTOWN APT PTCLDY    77  71  82 CALM      29.94S

$$

MDZ501>502-260800-
WESTERN MARYLAND

CITY           SKY/WX    TMP DP  RH WIND       PRES   REMARKS
OAKLAND*       PTCLDY    68  66  94 W7        30.09S
CUMBERLAND*    PTCLDY    73  70  88 N5        30.00S

$$

VAZ025>031-260800-
SHENANDOAH VALLEY

CITY           SKY/WX    TMP DP  RH WIND       PRES   REMARKS
WINCHESTER*    FAIR      75  72  88 CALM      29.95S
FRONT ROYAL*   FAIR      77  72  83 S6        29.94S
LURAY*         FAIR      73  73 100 CALM      29.97R
NEW MARKET*    FAIR     N/A N/A N/A CALM      29.96R
STAUNTON*      FAIR      74  71  90 CALM      30.01R
WAYNESBORO*    FAIR      78  70  75 W7        30.01R

$$

WVZ021-048>050-054>055-260800-
EASTERN WEST VIRGINIA PANHANDLE

CITY           SKY/WX    TMP DP  RH WIND       PRES   REMARKS
MARTINSBURG    FAIR      75  69  81 CALM      29.93S
PETERSBURG*    FAIR      74  72  92 CALM      29.98S

$$

VAZ036>039-050-260800-
CENTRAL FOOTHILLS

CITY           SKY/WX    TMP DP  RH WIND       PRES   REMARKS
CHARLOTTESVILL FAIR      83  71  67 SW5       29.94S
CULPEPER*      FAIR      76  76  99 CALM      29.93S FOG
ORANGE*          N/A     77  77 100 CALM      29.95R
GORDONSVILLE*  FAIR      77  73  90 CALM      29.93R
WARRENTON*     FAIR      77  70  79 CALM      29.92S

$$

VAZ055>057-260800-
NORTH AND CENTRAL PIEDMONT

CITY           SKY/WX    TMP DP  RH WIND       PRES   REMARKS
FREDERICKSBRG* FAIR      80  77  91 CALM      29.91R
STAFFORD*      FAIR      76  74  93 NW5       29.96R

$$

NCZ024-NYZ072-PAZ021-071-VAZ022-071-260800-
OTHER REGIONAL OBSERVATIONS

CITY           SKY/WX    TMP DP  RH WIND       PRES   REMARKS
NEW YORK CITY  CLEAR     72  70  93 VRB3      29.89S
PHILADELPHIA   PTCLDY    75  73  93 SW8       29.91S
PITTSBURGH     CLOUDY    73  69  87 CALM      29.98S
ROANOKE        FAIR      77  71  82 W5        30.03S
RICHMOND       MOCLDY    82  75  79 SW8       29.92S
RALEIGH        PTCLDY    80  73  79 SW10      29.99F

$$

ANZ530>537-260800-
MARINE OBSERVATIONS

STATION/POSITION TIME  TEMP    WIND        PRES
                       AIR SEA DIR/SP/G
                 (UTC) (F)     (DEG/KT/KT) (MB)
THOMAS PT LIGHT  0700   79 84   30/  6/  6 1014.1F
BALT KEY BRIDGE  0636   79      40/  4/  5 1013.0R
COVE POINT       0636   80      CALM  /  3 1012.8F
LEWISETTA        0636   83 87  160/  3/  3 1012.6F
SOLOMONS ISLAND  0624   79 84  230/  5/  6   N/A
PINEY POINT      0648          210/  5/  6   N/A

$$





USA.gov is the U.S. government's official web portal to all federal, state and local government web resources and services.